{"data":{"norad_id":54142,"epoch":"2026-05-24T21:55:16.336128Z","epoch_age_seconds":72648,"freshness":"FRESH","line1":"1 54142U 22138AF  26144.91338352 -.00000208  00000+0 -54346-3 0  9999","line2":"2 54142  87.9176 279.0774 0001670 127.6217 232.5068 13.20770861176232","mean_motion":13.20770861,"eccentricity":0.000167,"inclination_deg":87.9176,"raan_deg":279.0774,"arg_perigee_deg":127.6217,"mean_anomaly_deg":232.5068,"bstar":-0.00054346,"rev_number":17623,"period_min":109.02723875281,"perigee_km":1180.5144995834,"apogee_km":1183.0395108611,"semimajor_km":7559.9140052223,"source":"CELESTRAK","updated_at":"2026-05-25T13:38:22.590949Z"}}